Location: Bremen
(53.0793°N, 8.8017°E)
Time: 23:38:45
(UTC+02:00)

Transit 4A - Visible Passes

Search period start: 12 April 2024 00:00
Search period end: 22 April 2024 00:00
Orbit: 871 x 972 km, 66.8° (Epoch: 12 April)

Date Brightness Start Highest point End Pass type
(mag) Time Alt. Az. Time Alt. Az. Time Alt. Az.
12 Apr 7.9 00:44:04 10° NW 00:49:33 61° WSW 00:49:33 61° WSW visible
12 Apr 10.0 02:32:30 10° WNW 02:33:02 11° W 02:33:02 11° W visible
12 Apr 9.5 21:20:06 10° NW 21:24:46 24° NNE 21:29:24 10° ENE visible
12 Apr 8.3 23:06:44 10° NW 23:12:26 50° NE 23:14:50 32° E visible
13 Apr 8.3 00:53:15 10° NW 00:58:19 44° WSW 00:58:19 44° WSW visible
13 Apr 9.4 21:29:20 10° NW 21:34:13 26° NNE 21:39:03 10° ENE visible
13 Apr 8.0 23:15:48 10° NW 23:21:37 64° NE 23:23:37 40° ESE visible
14 Apr 8.8 01:02:32 10° NW 01:07:06 32° WSW 01:07:06 32° WSW visible
14 Apr 9.1 21:38:30 10° NW 21:43:37 30° NNE 21:48:42 10° E visible
14 Apr 7.7 23:24:53 10° NW 23:30:45 83° NE 23:32:26 49° SE visible
15 Apr 9.2 01:11:56 10° WNW 01:15:55 23° W 01:15:55 23° W visible
15 Apr 8.9 21:47:36 10° NW 21:52:58 35° NNE 21:57:46 12° E visible
15 Apr 7.7 23:33:58 10° NW 23:39:49 76° SW 23:41:16 52° SSE visible
16 Apr 9.6 01:21:38 10° WNW 01:24:45 17° W 01:24:45 17° W visible
16 Apr 8.5 21:56:41 10° NW 22:02:15 43° NE 22:06:38 16° ESE visible
16 Apr 8.0 23:43:07 10° NW 23:48:48 56° WSW 23:50:08 46° SSW visible
17 Apr 10.0 01:32:07 10° W 01:33:37 11° W 01:33:37 11° W visible
17 Apr 8.2 22:05:46 10° NW 22:11:29 54° NE 22:15:31 19° ESE visible
17 Apr 8.5 23:52:19 10° NW 23:57:44 41° WSW 23:59:01 36° SSW visible
18 Apr 7.9 22:14:49 10° NW 22:20:39 69° NE 22:24:27 23° SE visible
19 Apr 8.9 00:01:37 10° NW 00:06:36 30° WSW 00:07:56 27° SW visible
19 Apr 7.7 22:23:53 10° NW 22:29:46 89° NE 22:33:24 24° SE visible
20 Apr 9.4 00:11:06 10° WNW 00:15:23 22° WSW 00:16:53 19° SW visible
20 Apr 7.9 22:32:59 10° NW 22:38:47 69° SW 22:42:23 24° SSE visible
21 Apr 9.8 00:20:55 10° WNW 00:24:06 15° WSW 00:25:52 13° SW visible
21 Apr 8.3 22:42:09 10° NW 22:47:46 51° WSW 22:51:24 22° S visible
